Location: Isola Pescaroli
(45.0500°N, 10.1667°E)
Time: 02:16:27
(UTC+00:00)

Meteor 1-18 Rocket - Pass Details

Date: 03 March 2021
Orbit: 836 x 909 km, 81.2° (Epoch: 20 April)

Event Time Altitude Azimuth Distance (km) Brightness Sun altitude
Rises 17:48:05 0° 352° (N) 3,550 7.5 -7.6°
Reaches altitude 10° 17:50:37 10° 355° (N) 2,606 6.8 -8.0°
Maximum altitude 17:56:31 62° 76° (ENE) 1,018 4.4 -9.1°
Drops below altitude 10° 18:02:20 10° 157° (SSE) 2,571 6.5 -10.1°
Sets 18:04:48 0° 161° (SSE) 3,500 7.2 -10.6°
